Temp
-2 -2 -3 -5 -4 -5 -5 -4 -5 -3 -5 -4 -4 -5 -5 -5 -4 -4 -4 -4 -4 -3 -2 -0 2 5 10 11 13 13 13 13 12 12 12 12 11 11 11 10 9 9 9 9
-4 -3 -8 -5 -4 -4 -4 -5 -5 -6 -6 -4 -5 -5 -5 -5 -4 -5 -5 -4 -4 -3 -2 -1 1 2 6 12 12 15 14 12 12 12 12 12 11 11 10 10 9 8 8 9
-5 -2 -3 -4 -9 -5 -5 -4 -5 -6 -6 -5 -6 -6 -5 -5 -5 -5 -5 -5 -4 -4 -3 -2 -0 1 3 13 13 14 12 12 12 12 11 11 11 11 10 9 9 8 8 8
-5 -3 -6 -6 -7 -7 -7 -5 -7 -6 -6 -6 -6 -6 -5 -4 -5 -5 -5 -5 -4 -4 -3 -2 0 1 5 12 12 12 11 11 11 11 11 11 11 11 10 10 9 8 8 8
-6 -5 -4 -4 -6 -6 -8 -6 -7 -6 -7 -7 -6 -5 -2 -4 -5 -5 -5 -5 -4 -4 -3 -1 1 2 8 11 11 11 11 11 11 10 10 10 10 10 10 9 9 8 8 8
-5 -6 -5 -8 -5 -4 -8 -8 -4 -7 -7 -7 -6 -6 -4 -5 -5 -5 -5 -5 -4 -4 -3 -0 0 6 12 11 11 11 10 10 10 10 10 10 9 9 9 8 8 8 8 7
-6 -7 -5 -5 -5 -4 -6 -6 -7 -7 -8 -7 -7 -6 -5 -5 -5 -5 -5 -5 -4 -4 -3 -1 0 10 11 11 10 10 9 9 9 9 9 9 9 9 9 8 8 8 8 7
-7 -10 -6 -6 -5 -6 -8 -7 -8 -8 -7 -7 -7 -6 -6 -6 -6 -6 -6 -5 -5 -5 -3 -2 -0 5 6 6 9 9 9 8 8 8 8 8 8 8 8 7 7 7 7 7
-6 -4 -5 -6 -6 -6 -7 -9 -8 -8 -7 -7 -6 -6 -6 -6 -6 -6 -6 -5 -5 -5 -4 -2 -1 -0 2 4 8 8 8 8 8 8 8 8 8 7 7 6 6 6 6 6
-6 -4 -5 -6 -6 -7 -8 -9 -8 -7 -8 -6 -7 -6 -6 -6 -6 -6 -6 -6 -6 -5 -4 -3 -2 -1 0 4 8 8 7 7 7 7 7 7 7 7 6 5 5 5 5 5
-8 -7 -7 -6 -6 -9 -9 -8 -8 -8 -7 -7 -7 -7 -7 -7 -7 -7 -6 -6 -6 -6 -5 -4 -3 -1 0 2 5 6 6 6 6 5 6 5 5 5 6 5 7 5 5 5
-7 -8 -9 -9 -9 -9 -9 -9 -8 -8 -7 -7 -8 -8 -8 -7 -7 -7 -7 -7 -7 -6 -5 -4 -3 -2 -0 1 3 4 3 3 4 4 4 5 5 4 4 5 6 5 5 6
-9 -9 -10 -9 -10 -9 -10 -9 -9 -7 -8 -8 -8 -8 -8 -8 -8 -7 -8 -7 -7 -7 -6 -5 -4 -3 -2 -0 2 2 2 3 3 3 3 3 4 3 2 3 4 5 5 5
-11 -13 -10 -9 -10 -11 -10 -9 -9 -9 -9 -9 -9 -9 -9 -9 -8 -8 -8 -8 -8 -7 -6 -5 -4 -4 -2 -0 1 2 2 2 3 3 3 3 3 2 2 2 2 2 3 4
-12 -12 -11 -12 -11 -10 -10 -10 -10 -10 -9 -9 -9 -9 -9 -9 -9 -9 -9 -8 -8 -7 -7 -6 -5 -4 -3 -1 -0 0 1 1 2 2 2 2 2 2 2 2 2 2 2 2
-15 -14 -14 -14 -12 -12 -12 -11 -10 -10 -9 -9 -10 -9 -9 -9 -9 -9 -8 -8 -8 -8 -7 -6 -5 -4 -3 -2 -1 0 0 1 1 1 2 2 2 1 1 1 1 1 1 1
-13 -12 -14 -13 -14 -13 -13 -11 -10 -10 -10 -10 -10 -9 -8 -9 -9 -9 -8 -8 -7 -7 -7 -7 -5 -4 -4 -3 -2 -1 -0 -0 1 1 1 1 1 1 1 1 0 0 0 1
-13 -12 -13 -13 -14 -13 -11 -9 -9 -9 -9 -9 -9 -8 -9 -9 -10 -9 -9 -8 -8 -7 -7 -7 -6 -5 -4 -3 -2 -2 -1 -1 -0 -0 0 0 -0 0 -0 -0 -0 -0 -1 -2
-13 -13 -11 -11 -10 -10 -10 -9 -9 -9 -8 -9 -9 -9 -9 -9 -9 -9 -8 -8 -8 -7 -7 -7 -6 -5 -5 -5 -3 -3 -2 -2 -2 -2 -2 -1 -1 -1 -1 -1 -2 -3 -3 -3
-12 -11 -10 -10 -8 -8 -8 -8 -8 -8 -8 -9 -8 -9 -9 -9 -8 -8 -8 -8 -8 -7 -7 -7 -6 -6 -6 -5 -4 -3 -3 -3 -3 -3 -2 -3 -3 -3 -3 -3 -3 -3 -3 -2
-11 -10 -10 -9 -8 -8 -8 -8 -8 -9 -9 -9 -9 -9 -9 -9 -8 -8 -8 -8 -8 -7 -7 -7 -7 -6 -6 -5 -5 -5 -4 -4 -4 -5 -4 -4 -4 -4 -4 -4 -4 -4 -4 -4
-10 -10 -9 -8 -8 -8 -8 -8 -8 -8 -9 -9 -9 -9 -9 -9 -9 -9 -8 -9 -8 -7 -7 -7 -7 -7 -7 -6 -6 -6 -6 -6 -6 -6 -6 -5 -5 -5 -6 -5 -5 -5 -5 -5
-9 -9 -9 -8 -8 -8 -8 -8 -8 -8 -9 -9 -9 -9 -9 -9 -10 -10 -10 -9 -8 -8 -7 -7 -7 -8 -7 -7 -7 -7 -7 -7 -7 -6 -6 -6 -6 -6 -6 -6 -6 -5 -5 -5
-9 -8 -8 -8 -8 -9 -9 -8 -8 -8 -9 -9 -9 -9 -9 -9 -9 -9 -9 -9 -8 -9 -8 -8 -8 -8 -7 -8 -8 -7 -8 -8 -7 -7 -7 -7 -7 -7 -6 -6 -6 -6 -6 -6
-8 -8 -9 -9 -9 -9 -9 -9 -9 -8 -8 -9 -9 -9 -9 -10 -10 -9 -9 -9 -9 -8 -8 -9 -9 -8 -8 -8 -8 -8 -8 -8 -7 -7 -7 -7 -7 -7 -7 -6 -6 -6 -6 -6
-9 -9 -9 -9 -9 -9 -9 -9 -9 -9 -9 -9 -9 -9 -9 -9 -10 -9 -9 -9 -8 -8 -8 -9 -9 -8 -8 -8 -8 -8 -8 -8 -7 -7 -7 -7 -7 -7 -7 -7 -6 -6 -6 -7
-9 -9 -9 -10 -9 -9 -9 -9 -9 -9 -9 -9 -9 -9 -9 -10 -10 -9 -9 -9 -9 -9 -8 -9 -9 -9 -8 -8 -8 -8 -8 -8 -8 -7 -7 -7 -7 -7 -7 -7 -7 -7 -7 -7
Height
876 865 866 873 872 874 872 862 858 826 828 810 801 790 776 759 743 729 715 702 690 677 664 655 647 643 640 644 649 656 666 674 681 688 690 696 703 711 722 731 742 751 761 774
877 863 883 870 868 863 859 857 850 842 833 818 803 790 771 759 742 728 713 699 685 674 664 654 648 645 639 638 643 651 665 674 680 685 691 697 703 711 721 726 736 746 755 762
885 862 862 873 892 868 858 848 849 842 830 812 798 785 767 755 743 730 716 703 686 677 665 657 648 639 636 637 644 654 661 671 677 681 693 698 702 709 717 726 735 743 753 757
889 872 900 882 875 871 864 842 851 842 830 821 811 788 769 760 750 729 712 698 684 675 664 654 644 641 638 639 643 658 667 675 681 688 694 699 703 709 717 724 732 742 749 757
906 893 871 866 871 866 872 843 845 838 827 817 804 784 761 761 745 733 720 706 692 673 661 652 642 638 637 639 647 655 668 675 680 683 691 698 703 710 718 723 733 740 746 756
895 906 886 886 865 855 859 861 834 838 825 814 800 776 756 755 746 733 717 706 688 675 664 649 640 628 631 643 649 661 668 673 680 686 695 701 706 711 719 726 733 741 748 755
899 903 877 873 865 851 871 864 845 843 831 817 809 811 781 768 754 741 728 710 693 680 668 655 642 634 640 648 653 664 673 676 683 690 698 703 709 715 721 728 736 741 750 758
906 927 894 876 866 877 878 863 855 844 833 820 809 795 783 770 754 742 714 702 692 688 681 664 659 646 649 652 658 671 676 680 689 695 699 705 709 716 721 731 737 744 752 760
901 884 874 872 871 870 871 867 856 847 834 826 808 795 785 772 757 744 734 716 703 686 678 667 662 660 661 664 669 676 681 689 696 698 707 712 715 721 725 732 738 746 753 759
895 874 874 873 871 871 870 866 856 847 837 827 815 802 790 779 765 757 738 726 710 700 686 678 670 672 673 672 677 682 688 696 700 704 710 715 718 723 726 735 742 749 752 760
895 881 876 869 870 870 866 862 855 844 839 829 821 806 797 786 774 763 757 743 732 720 711 701 689 684 684 686 686 690 697 701 705 711 715 719 723 728 732 737 742 746 752 756
892 885 886 878 873 869 867 861 854 846 835 829 825 814 804 792 785 771 760 749 739 723 717 712 705 698 693 698 697 699 703 709 711 716 719 723 727 735 741 744 746 748 752 757
888 886 884 876 871 868 866 861 853 847 840 831 823 821 811 802 792 782 770 758 752 744 732 726 719 713 716 716 711 707 707 712 716 719 722 727 730 736 742 748 751 755 760 763
883 883 878 874 873 868 863 858 853 847 841 835 825 815 812 805 796 789 780 771 762 756 750 742 733 726 724 719 719 717 717 719 721 724 728 732 735 741 744 750 753 758 765 768
879 878 875 873 869 867 861 856 851 846 841 836 830 822 811 804 798 792 784 775 767 761 752 746 742 741 736 733 729 725 727 728 728 730 734 737 740 745 747 750 754 761 769 776
878 877 875 874 870 868 863 855 853 847 842 837 833 827 821 812 804 795 788 778 771 767 764 759 753 748 742 737 734 733 733 736 737 739 741 744 745 751 754 755 762 766 772 777
879 878 875 873 869 866 865 857 854 848 843 838 833 828 824 818 811 803 796 790 784 777 769 764 761 759 755 750 744 740 740 741 742 743 745 750 754 757 758 762 767 772 776 780
874 873 871 869 866 862 859 855 852 848 843 838 833 828 823 819 816 810 803 796 791 787 780 774 769 762 756 751 749 748 747 747 747 749 751 755 758 760 763 767 772 775 781 784
869 870 868 867 864 860 856 854 850 848 844 839 834 830 825 820 815 811 806 800 793 788 785 780 775 768 765 762 758 756 757 756 755 757 760 762 763 765 768 771 777 780 787 789
865 864 865 864 862 859 854 852 849 847 844 840 836 832 826 822 816 811 808 805 801 796 790 785 781 776 771 766 767 764 763 763 763 763 765 766 767 771 775 778 782 786 791 793
862 862 860 860 858 857 853 850 848 846 844 841 837 834 830 825 821 817 812 807 802 799 794 788 784 780 777 775 772 769 770 769 770 771 772 774 774 778 781 785 789 793 797 800
858 857 857 857 856 855 851 849 847 846 844 841 839 835 832 827 823 819 817 814 808 803 796 791 788 785 781 779 778 778 777 777 777 779 780 780 779 785 787 790 792 797 801 807
855 853 855 854 854 853 850 847 845 845 844 842 839 837 834 831 828 824 819 816 813 808 801 797 793 789 785 783 781 781 783 783 783 783 783 785 786 790 792 795 798 802 807 811
851 850 851 852 852 852 848 846 844 844 844 842 840 838 835 832 829 827 824 821 817 811 808 806 802 798 794 792 790 789 789 789 790 790 792 793 794 796 800 802 805 810 815 818
848 848 849 848 849 849 846 844 843 842 842 841 840 838 836 833 830 827 825 821 816 813 812 812 809 806 802 800 798 797 799 799 798 798 800 801 802 803 806 808 812 815 819 824
844 844 844 845 846 846 844 842 841 840 840 839 839 837 836 834 831 829 826 822 820 818 819 818 815 812 810 807 806 805 805 805 805 805 806 807 808 809 812 815 818 822 826 830
842 842 841 841 843 843 841 840 839 838 837 837 836 836 835 833 831 829 828 825 824 823 822 822 820 819 817 816 814 813 812 813 814 814 814 815 816 818 821 824 827 830 834 838
Wind_Speed
12 18 14 8 3 6 5 12 6 14 23 26 30 30 29 27 25 27 27 24 21 17 16 14 14 9 22 25 26 29 28 27 25 31 34 37 39 41 40 45 49 47 40 34
11 1 4 4 1 13 9 8 13 13 21 25 27 25 27 26 24 28 27 26 24 21 18 16 14 12 4 21 25 29 29 26 29 28 30 34 41 41 42 42 40 42 43 43
5 7 3 3 4 11 16 15 8 7 22 28 31 31 32 23 28 28 26 25 24 20 19 16 18 17 12 26 32 30 25 24 27 31 31 29 35 35 37 39 42 44 44 45
4 7 4 5 4 8 10 14 2 16 26 25 24 29 27 18 23 27 29 29 24 19 19 23 21 15 10 29 31 28 26 25 27 32 31 30 33 37 37 39 40 40 40 44
2 2 6 2 6 12 7 20 5 23 27 27 25 20 12 25 28 25 25 23 22 33 29 24 21 17 10 27 28 27 26 27 28 29 27 28 28 29 29 35 35 37 40 40
3 3 4 5 10 15 3 5 21 25 25 29 27 22 22 32 30 28 32 35 33 39 31 25 26 2 27 26 28 24 25 27 29 30 29 27 28 29 30 30 31 32 31 35
3 4 6 2 14 11 6 7 25 21 24 24 19 15 26 27 25 32 32 36 42 37 27 33 29 19 21 24 23 24 24 28 29 29 30 31 31 32 33 31 31 30 32 32
2 3 6 4 3 3 5 12 16 20 18 24 24 25 25 25 26 26 31 40 45 35 26 33 28 23 23 18 28 28 28 28 26 29 28 28 30 28 33 33 30 28 28 26
5 5 1 2 5 3 5 12 11 18 21 20 24 25 26 25 26 24 30 35 42 39 34 35 37 29 24 20 30 31 31 29 28 29 28 29 32 30 29 29 27 25 25 25
3 2 4 8 2 2 7 9 15 16 19 19 21 23 23 22 22 20 35 35 44 41 34 35 40 34 30 21 31 33 31 29 29 28 26 25 26 28 30 27 25 24 25 24
6 6 8 1 5 7 11 12 14 20 18 17 18 21 20 20 21 28 30 33 34 33 32 34 37 38 35 20 23 32 30 28 27 26 26 25 22 21 25 24 30 32 29 35
4 2 4 8 7 12 8 14 15 15 18 23 20 18 24 17 28 30 31 35 35 38 37 37 35 38 42 27 19 24 26 24 25 26 26 25 23 18 12 16 21 21 28 33
4 2 6 12 10 8 10 13 21 19 20 14 25 22 23 23 26 31 31 33 33 32 34 36 35 37 34 26 19 17 22 23 23 25 25 24 25 24 22 15 9 14 22 25
4 2 5 2 4 19 17 19 20 19 20 19 22 26 24 22 23 26 28 30 32 30 29 31 31 33 35 30 24 21 17 17 20 21 23 23 24 23 24 21 21 20 13 17
7 8 7 12 14 13 17 15 12 10 18 19 23 22 26 25 25 26 29 31 29 28 32 34 32 33 32 25 24 24 21 19 18 19 19 20 22 21 23 24 24 24 23 21
4 5 6 3 7 9 12 12 9 11 17 18 18 21 25 27 27 27 30 35 29 27 28 29 30 33 31 27 23 21 19 14 17 20 21 21 21 21 20 23 20 21 22 27
3 5 4 4 4 7 8 15 14 14 18 19 21 24 24 23 22 25 29 32 29 27 28 30 29 26 25 22 19 18 15 14 13 16 18 19 21 22 23 21 19 20 22 26
9 9 10 12 8 8 13 18 19 20 18 22 23 22 23 19 17 21 28 29 25 22 31 29 26 23 24 23 18 15 14 13 13 14 15 17 20 22 24 26 23 24 24 24
11 14 14 14 16 16 15 17 19 20 19 19 21 21 20 21 23 24 26 24 25 24 29 27 22 20 20 19 14 13 12 14 17 19 18 19 22 23 25 27 26 26 24 26
11 12 12 13 13 13 13 15 16 17 17 17 18 20 21 22 22 25 25 19 25 25 24 22 20 18 17 15 12 13 13 15 16 16 17 21 23 24 24 27 27 26 25 26
13 12 12 12 13 13 11 11 13 15 16 15 15 16 17 18 19 19 19 19 30 26 21 20 19 17 15 12 11 13 13 15 16 18 20 21 23 24 25 26 26 27 27 29
13 12 12 11 12 13 10 9 9 12 13 14 14 14 15 18 21 18 14 19 25 24 22 22 18 14 12 11 14 15 15 16 18 19 21 22 25 25 25 27 28 28 29 28
13 11 12 10 12 13 12 9 7 9 10 11 12 14 14 12 13 14 14 22 21 20 24 21 16 14 12 14 15 17 17 17 18 19 21 22 25 26 27 28 29 29 28 27
13 11 12 11 11 12 11 9 7 8 8 9 9 10 11 14 10 11 11 11 15 15 20 20 16 14 15 17 18 18 19 20 21 22 21 25 27 28 28 28 29 28 28 28
12 11 11 10 12 14 11 9 9 8 8 8 8 8 8 8 7 12 11 12 14 16 18 16 16 17 19 20 22 23 21 19 22 24 25 26 27 28 28 29 29 30 30 29
11 12 12 12 14 13 11 9 10 9 8 9 8 8 7 6 6 7 7 9 11 13 14 14 15 18 20 21 22 22 22 22 24 24 26 27 28 29 29 28 29 30 29 28
11 11 11 12 12 12 11 9 10 10 8 7 7 6 6 5 4 5 5 8 9 10 11 13 13 14 16 18 21 22 23 23 22 24 25 25 26 27 28 28 27 27 26 26
Wind_Direction
258 274 274 262 193 311 289 299 271 293 304 315 326 323 320 316 317 328 329 329 330 331 332 330 337 316 183 180 172 178 178 167 170 167 161 160 159 166 163 166 169 170 168 173
301 279 189 182 213 344 325 287 281 280 292 324 317 319 321 324 329 333 332 333 334 337 332 333 332 323 243 176 160 164 166 167 163 157 166 168 164 164 166 162 164 164 170 176
274 316 319 353 237 339 306 306 289 305 322 326 328 329 325 328 335 333 333 335 333 337 332 323 319 324 301 163 148 154 146 154 156 157 167 169 165 162 164 164 167 170 172 172
284 344 9 248 235 261 285 298 230 330 326 323 323 318 310 339 335 332 336 338 335 334 328 323 327 311 271 144 130 139 143 148 155 157 162 163 164 166 167 164 167 169 172 175
333 267 276 7 335 323 354 309 352 336 327 325 326 312 310 346 339 336 331 332 330 333 327 324 324 303 173 126 128 127 143 148 147 146 151 155 161 162 166 163 167 167 169 171
347 315 273 245 310 311 119 282 353 338 325 327 336 346 333 338 337 336 335 339 339 339 330 349 336 336 133 134 128 138 140 141 143 142 145 144 145 143 147 151 153 156 159 166
279 268 288 300 312 322 47 285 326 324 319 323 331 321 312 326 332 334 334 340 346 350 352 355 347 118 117 126 117 121 130 131 137 143 145 147 145 147 147 147 149 151 155 166
316 345 322 356 352 43 245 301 307 314 319 320 321 324 327 332 335 342 338 348 353 351 348 3 11 65 75 65 114 126 121 119 128 138 137 143 140 138 142 146 141 140 144 147
185 240 4 327 241 238 292 296 307 315 316 320 322 329 331 335 337 341 343 343 351 355 354 8 21 37 52 52 113 118 119 122 129 132 141 148 144 141 135 139 136 138 142 141
4 267 304 307 272 304 313 299 312 314 315 321 324 327 331 335 337 346 347 352 346 351 357 8 11 28 41 79 123 129 123 127 133 136 138 144 148 153 144 144 140 143 140 139
262 297 313 231 317 333 320 316 321 320 319 324 329 330 333 334 339 340 347 348 349 350 0 4 9 23 38 57 119 123 126 126 129 133 137 135 132 147 155 163 169 165 159 159
257 262 221 278 308 319 322 322 320 318 328 329 334 330 335 334 339 339 345 348 356 353 359 3 11 21 31 46 88 116 115 122 126 130 128 132 130 114 119 147 178 173 171 176
254 269 244 275 285 307 320 317 317 327 325 323 328 335 335 332 339 345 347 350 354 354 357 1 7 17 23 48 73 94 102 117 123 128 129 129 129 126 113 105 128 171 179 180
248 313 296 269 295 312 310 312 318 321 326 325 326 335 341 342 344 349 349 345 349 355 1 4 13 14 21 35 52 70 88 110 121 127 132 133 133 133 132 129 123 123 156 168
264 220 250 292 303 308 325 327 326 332 330 334 342 341 343 343 344 344 348 351 354 1 4 5 9 10 21 34 50 61 79 97 110 117 127 132 131 132 130 124 120 126 132 140
295 276 295 271 304 312 315 330 327 328 331 332 337 343 346 349 345 346 357 3 358 357 359 3 6 10 18 23 41 56 63 76 104 117 123 127 126 123 119 118 123 124 128 134
8 328 329 314 314 317 302 310 314 317 324 330 334 343 355 355 351 354 355 5 2 3 3 7 3 15 21 27 37 44 59 68 90 105 114 124 128 125 124 118 117 122 128 137
244 267 270 265 278 296 307 320 329 328 329 334 341 347 355 353 353 349 354 360 358 8 12 9 5 12 24 23 35 50 65 76 87 98 111 121 122 127 122 121 116 112 115 123
250 265 278 284 288 294 302 320 332 330 333 341 345 346 350 355 2 2 5 0 1 1 0 5 3 18 26 27 37 60 77 94 103 105 110 114 117 117 117 117 116 118 122 127
264 268 278 286 300 300 308 327 334 333 340 342 346 354 356 359 4 6 0 1 3 359 357 4 10 23 26 31 45 71 86 96 102 108 115 115 111 109 111 120 124 126 133 137
263 275 278 285 293 301 307 326 334 331 339 346 347 348 351 357 7 12 2 2 360 5 8 12 13 17 35 48 63 76 87 97 106 109 111 112 115 117 121 125 130 134 133 136
263 268 276 284 288 293 305 319 332 327 336 346 349 352 354 357 3 9 18 2 0 7 17 20 18 25 36 63 79 87 95 103 107 115 118 117 117 119 116 123 126 128 133 135
263 266 275 278 282 289 301 300 316 322 328 337 341 346 353 351 358 357 355 10 5 15 27 23 21 36 56 73 79 86 92 99 106 110 114 119 121 123 125 125 127 131 132 132
259 264 268 278 281 285 287 299 303 308 309 319 329 335 341 346 354 6 7 5 16 28 37 29 36 55 81 83 86 91 95 99 105 109 110 120 121 123 125 127 125 128 131 132
258 266 269 270 271 276 284 291 298 297 293 305 319 327 339 346 345 342 1 17 33 40 46 37 51 73 82 89 93 93 91 98 109 113 115 118 120 121 123 126 127 127 128 128
255 257 263 267 269 276 278 286 289 293 294 293 303 320 332 345 358 2 19 35 48 53 54 52 54 74 82 86 90 92 96 102 107 109 115 117 119 120 121 123 124 126 125 123
259 262 265 267 263 264 270 275 279 279 281 284 290 311 331 350 8 16 39 61 66 70 69 67 68 77 83 89 92 94 94 93 96 104 109 113 116 118 121 121 122 124 129 132